Location: Madrid
(40.4167°N, 3.7036°W)
Time: 07:18:04
(UTC+00:00)

ISS - Pass Details

Date: 17 August 2024
Orbit: 414 x 424 km, 51.6° (Epoch: 16 September)

Event Time Altitude Azimuth Distance (km) Brightness Sun altitude
Rises 04:48:51 0° 189° (S) 2,249 -0.4 -7.8°
Reaches altitude 10° 04:51:44 10° 159° (SSE) 1,397 -1.1 -7.3°
Maximum altitude 04:53:15 13° 130° (SE) 1,238 -1.0 -7.0°
Drops below altitude 10° 04:54:45 10° 101° (E) 1,399 -0.2 -6.7°
Sets 04:57:38 0° 72° (ENE) 2,255 2.6 -6.2°
